Regional Weather Roundup
Issued by NWS

Home | Current Version | Previous Version | Text Only | Print | Product List | Glossary Off
Versions: 1 2 3 4 5 6 7 8 9 10 11 12 13 14 15 16 17 18 19 20 21 22 23 24 25 26 27 28 29 30 31 32 33 34 35 36 37 38 39 40 41 42 43 44 45 46 47 48 49 50

000
ASUS43 KFSD 190210
RWRSD

WEATHER ROUNDUP FOR SOUTH DAKOTA
NATIONAL WEATHER SERVICE SIOUX FALLS SD
900 PM CDT THU SEP 18 2014

NOTE: "FAIR" INDICATES FEW OR NO CLOUDS BELOW 12,000 FEET WITH NO
SIGNIFICANT WEATHER AND/OR OBSTRUCTIONS TO VISIBILITY.


SDZ001>005-009-010-012>017-190300-
NORTHWEST AND NORTH CENTRAL SOUTH DAKOTA

CITY           SKY/WX    TMP DP  RH WIND       PRES   REMARKS
BUFFALO          N/A     73  59  61 SE9       29.67F
FAITH            N/A     73  65  75 SE15      29.71F
MOBRIDGE       MOCLDY    70  61  73 SE12      29.70R
$$

SDZ012>016-024>037-041>051-057-063-072>074-190300-
SOUTHWEST AND SOUTH CENTRAL SOUTH DAKOTA

CITY           SKY/WX    TMP DP  RH WIND       PRES   REMARKS
RAPID CTY ARPT CLOUDY    74  53  48 SE6       29.72S
PIERRE         PTCLDY    72  59  63 SE12      29.72S
CUSTER         PTCLDY    74  47  38 S5        29.91S
ELLSWORTH AFB  CLOUDY    79  54  42 SE9       29.72S
PHILIP         PTCLDY    75  63  66 SE9       29.70R
PINE RIDGE     MOCLDY    76  63  64 S15G24    29.78R
WINNER         FAIR      72  62  71 S14       29.80R
$$

SDZ004>011-016>023-039-040-190300-
NORTHEAST SOUTH DAKOTA

CITY           SKY/WX    TMP DP  RH WIND       PRES   REMARKS
ABERDEEN       MOCLDY    69  57  65 S16G24    29.78S
WATERTOWN      MOCLDY    64  54  69 S13       29.87S
SISSETON         N/A     64  58  80 S10       29.82R
$$

SDZ017-020-022-023-036>040-048>070-190300-
SOUTHEAST SOUTH DAKOTA

CITY           SKY/WX    TMP DP  RH WIND       PRES   REMARKS
SIOUX FALLS    MOCLDY    67  56  67 SE15      29.91F
HURON          MOCLDY    67  57  70 SE12      29.82F
CHAMBERLAIN    CLEAR     65  60  82 SE9       29.80R
MITCHELL       PTCLDY    68  59  73 SE15G25   29.85S
YANKTON        PTCLDY    66  59  77 SE12      29.89S
$$

ABBREVIATIONS USED IN REMARKS
   TC - TEMPERATURE IN CELSIUS
  WCI - WIND CHILL INDEX
   HX - HEAT INDEX
  VSB - VISIBILITY



USA.gov is the U.S. government's official web portal to all federal, state and local government web resources and services.